Time,TemperatureF,DewpointF,PressureIn,WindDirection,WindDirectionDegrees,WindSpeedMPH,WindSpeedGustMPH,Humidity,HourlyPrecipIn,Conditions,Clouds,dailyrainin,SoftwareType,DateUTC
2013-02-03 03:05:00,25.6,23.3,29.98,North,0,0.0,0.0,91,0.00,,,0.00,WUHU216DAVISVP2,2013-02-03 08:05:00,
2013-02-03 03:10:00,25.6,23.3,29.98,North,0,0.0,0.0,91,0.00,,,0.00,WUHU216DAVISVP2,2013-02-03 08:10:00,
2013-02-03 03:15:00,25.5,23.2,29.98,North,0,0.0,0.0,91,0.00,,,0.00,WUHU216DAVISVP2,2013-02-03 08:15:00,
2013-02-03 03:20:00,25.5,23.5,29.98,North,0,0.0,0.0,92,0.00,,,0.00,WUHU216DAVISVP2,2013-02-03 08:20:00,
2013-02-03 03:25:00,25.5,23.5,29.97,North,0,0.0,0.0,92,0.00,,,0.00,WUHU216DAVISVP2,2013-02-03 08:25:00,
2013-02-03 03:30:00,25.4,23.4,29.97,North,0,0.0,0.0,92,0.00,,,0.00,WUHU216DAVISVP2,2013-02-03 08:30:00,
2013-02-03 03:35:00,25.4,23.4,29.97,North,0,0.0,0.0,92,0.00,,,0.00,WUHU216DAVISVP2,2013-02-03 08:35:00,
2013-02-03 03:40:00,25.3,23.3,29.96,North,0,0.0,0.0,92,0.00,,,0.00,WUHU216DAVISVP2,2013-02-03 08:40:00,
2013-02-03 03:45:00,25.4,23.4,29.96,North,0,0.0,1.0,92,0.00,,,0.00,WUHU216DAVISVP2,2013-02-03 08:45:00,
2013-02-03 03:50:00,25.4,23.4,29.96,North,0,0.0,1.0,92,0.00,,,0.00,WUHU216DAVISVP2,2013-02-03 08:50:00,
2013-02-03 03:55:00,25.4,23.4,29.95,North,0,0.0,1.0,92,0.00,,,0.00,WUHU216DAVISVP2,2013-02-03 08:55:00,
2013-02-03 04:00:00,25.4,23.4,29.95,SW,225,2.0,4.0,92,0.00,,,0.00,WUHU216DAVISVP2,2013-02-03 09:00:00,
2013-02-03 04:05:00,25.5,23.2,29.95,North,0,0.0,4.0,91,0.00,,,0.00,WUHU216DAVISVP2,2013-02-03 09:05:00,
2013-02-03 04:10:00,25.6,23.3,29.95,North,0,0.0,3.0,91,0.00,,,0.00,WUHU216DAVISVP2,2013-02-03 09:10:00,
2013-02-03 04:15:00,25.6,23.1,29.95,North,0,0.0,1.0,90,0.00,,,0.00,WUHU216DAVISVP2,2013-02-03 09:15:00,
2013-02-03 04:20:00,25.6,23.1,29.95,SW,225,0.0,2.0,90,0.00,,,0.00,WUHU216DAVISVP2,2013-02-03 09:20:00,
2013-02-03 04:25:00,25.7,22.9,29.95,West,270,1.0,3.0,89,0.00,,,0.00,WUHU216DAVISVP2,2013-02-03 09:25:00,
2013-02-03 04:30:00,25.8,22.7,29.95,West,270,1.0,3.0,88,0.00,,,0.00,WUHU216DAVISVP2,2013-02-03 09:30:00,
2013-02-03 04:35:00,25.8,22.7,29.95,West,270,0.0,3.0,88,0.00,,,0.00,WUHU216DAVISVP2,2013-02-03 09:35:00,
2013-02-03 04:40:00,25.8,22.7,29.94,North,0,0.0,2.0,88,0.00,,,0.00,WUHU216DAVISVP2,2013-02-03 09:40:00,
2013-02-03 04:45:00,25.8,22.7,29.94,West,270,0.0,2.0,88,0.00,,,0.00,WUHU216DAVISVP2,2013-02-03 09:45:00,
2013-02-03 04:50:00,25.8,22.5,29.94,West,270,0.0,2.0,87,0.00,,,0.00,WUHU216DAVISVP2,2013-02-03 09:50:00,
2013-02-03 04:55:00,25.8,22.5,29.94,North,0,0.0,2.0,87,0.00,,,0.00,WUHU216DAVISVP2,2013-02-03 09:55:00,
2013-02-03 05:00:00,25.8,22.5,29.94,North,0,0.0,2.0,87,0.00,,,0.00,WUHU216DAVISVP2,2013-02-03 10:00:00,
2013-02-03 05:05:00,25.8,22.7,29.94,North,0,0.0,1.0,88,0.00,,,0.00,WUHU216DAVISVP2,2013-02-03 10:05:00,
2013-02-03 05:10:00,25.7,22.6,29.94,North,0,0.0,1.0,88,0.00,,,0.00,WUHU216DAVISVP2,2013-02-03 10:10:00,
2013-02-03 05:15:00,25.7,22.6,29.94,West,270,0.0,1.0,88,0.00,,,0.00,WUHU216DAVISVP2,2013-02-03 10:15:00,
2013-02-03 05:20:00,25.6,22.5,29.94,West,270,0.0,1.0,88,0.00,,,0.00,WUHU216DAVISVP2,2013-02-03 10:20:00,
2013-02-03 05:25:00,25.6,22.5,29.94,North,0,0.0,1.0,88,0.00,,,0.00,WUHU216DAVISVP2,2013-02-03 10:25:00,
2013-02-03 05:30:00,25.6,22.5,29.93,West,270,0.0,2.0,88,0.00,,,0.00,WUHU216DAVISVP2,2013-02-03 10:30:00,
2013-02-03 05:35:00,25.5,22.4,29.93,North,0,0.0,2.0,88,0.00,,,0.00,WUHU216DAVISVP2,2013-02-03 10:35:00,
2013-02-03 05:40:00,25.5,22.4,29.93,North,0,0.0,2.0,88,0.00,,,0.00,WUHU216DAVISVP2,2013-02-03 10:40:00,
2013-02-03 05:45:00,25.4,22.3,29.93,West,270,0.0,1.0,88,0.00,,,0.00,WUHU216DAVISVP2,2013-02-03 10:45:00,
2013-02-03 05:50:00,25.4,22.3,29.93,West,270,1.0,2.0,88,0.00,,,0.00,WUHU216DAVISVP2,2013-02-03 10:50:00,
2013-02-03 05:55:00,25.4,22.1,29.93,West,270,0.0,2.0,87,0.00,,,0.00,WUHU216DAVISVP2,2013-02-03 10:55:00,
2013-02-03 06:00:00,25.4,22.1,29.93,WSW,248,1.0,3.0,87,0.00,,,0.00,WUHU216DAVISVP2,2013-02-03 11:00:00,
2013-02-03 06:05:00,25.4,22.1,29.93,WSW,248,1.0,3.0,87,0.00,,,0.00,WUHU216DAVISVP2,2013-02-03 11:05:00,
2013-02-03 06:10:00,25.4,22.1,29.93,WSW,248,0.0,2.0,87,0.00,,,0.00,WUHU216DAVISVP2,2013-02-03 11:10:00,
2013-02-03 06:15:00,25.4,22.1,29.93,WSW,248,0.0,2.0,87,0.00,,,0.00,WUHU216DAVISVP2,2013-02-03 11:15:00,
2013-02-03 06:20:00,25.4,22.1,29.93,WNW,293,1.0,3.0,87,0.00,,,0.00,WUHU216DAVISVP2,2013-02-03 11:20:00,
2013-02-03 06:25:00,25.4,22.1,29.93,WNW,293,0.0,3.0,87,0.00,,,0.00,WUHU216DAVISVP2,2013-02-03 11:25:00,
2013-02-03 06:30:00,25.4,22.1,29.93,North,0,0.0,3.0,87,0.00,,,0.00,WUHU216DAVISVP2,2013-02-03 11:30:00,
2013-02-03 06:35:00,25.3,22.0,29.93,WNW,293,0.0,1.0,87,0.00,,,0.00,WUHU216DAVISVP2,2013-02-03 11:35:00,
2013-02-03 06:40:00,25.3,22.0,29.93,North,0,0.0,1.0,87,0.00,,,0.00,WUHU216DAVISVP2,2013-02-03 11:40:00,
2013-02-03 06:45:00,25.3,22.2,29.93,North,0,0.0,1.0,88,0.00,,,0.00,WUHU216DAVISVP2,2013-02-03 11:45:00,
2013-02-03 06:50:00,25.2,22.1,29.93,WNW,293,0.0,2.0,88,0.00,,,0.00,WUHU216DAVISVP2,2013-02-03 11:50:00,
2013-02-03 06:55:00,25.2,21.9,29.93,North,0,0.0,2.0,87,0.00,,,0.00,WUHU216DAVISVP2,2013-02-03 11:55:00,
2013-02-03 07:00:00,25.2,22.1,29.93,WNW,293,0.0,2.0,88,0.00,,,0.00,WUHU216DAVISVP2,2013-02-03 12:00:00,
2013-02-03 07:05:00,25.2,22.1,29.94,WNW,293,2.0,4.0,88,0.00,,,0.00,WUHU216DAVISVP2,2013-02-03 12:05:00,
2013-02-03 07:10:00,25.3,22.0,29.93,West,270,1.0,4.0,87,0.00,,,0.00,WUHU216DAVISVP2,2013-02-03 12:10:00,
2013-02-03 07:15:00,25.3,22.0,29.94,West,270,0.0,4.0,87,0.00,,,0.00,WUHU216DAVISVP2,2013-02-03 12:15:00,
2013-02-03 07:20:00,25.3,22.0,29.94,West,270,0.0,2.0,87,0.00,,,0.00,WUHU216DAVISVP2,2013-02-03 12:20:00,
2013-02-03 07:25:00,25.2,21.9,29.94,North,0,0.0,2.0,87,0.00,,,0.00,WUHU216DAVISVP2,2013-02-03 12:25:00,
2013-02-03 07:30:00,25.2,21.9,29.94,WSW,248,1.0,3.0,87,0.00,,,0.00,WUHU216DAVISVP2,2013-02-03 12:30:00,
2013-02-03 07:35:00,25.2,21.3,29.94,WSW,248,3.0,5.0,85,0.00,,,0.00,WUHU216DAVISVP2,2013-02-03 12:35:00,
2013-02-03 07:40:00,25.2,21.3,29.93,SW,225,3.0,5.0,85,0.00,,,0.00,WUHU216DAVISVP2,2013-02-03 12:40:00,
2013-02-03 07:45:00,25.2,21.3,29.94,West,270,1.0,5.0,85,0.00,,,0.00,WUHU216DAVISVP2,2013-02-03 12:45:00,
2013-02-03 07:50:00,25.2,21.3,29.94,WSW,248,1.0,5.0,85,0.00,,,0.00,WUHU216DAVISVP2,2013-02-03 12:50:00,
2013-02-03 07:55:00,25.2,21.0,29.93,SW,225,1.0,4.0,84,0.00,,,0.00,WUHU216DAVISVP2,2013-02-03 12:55:00,
2013-02-03 08:00:00,25.3,21.1,29.93,SW,225,3.0,7.0,84,0.00,,,0.00,WUHU216DAVISVP2,2013-02-03 13:00:00,
2013-02-03 08:05:00,25.3,21.1,29.93,SW,225,3.0,7.0,84,0.00,,,0.00,WUHU216DAVISVP2,2013-02-03 13:05:00,
2013-02-03 08:10:00,25.4,21.2,29.93,SSW,203,2.0,6.0,84,0.00,,,0.00,WUHU216DAVISVP2,2013-02-03 13:10:00,
2013-02-03 08:15:00,25.4,21.5,29.93,SW,225,2.0,7.0,85,0.00,,,0.00,WUHU216DAVISVP2,2013-02-03 13:15:00,
2013-02-03 08:20:00,25.4,21.5,29.93,SW,225,1.0,7.0,85,0.00,,,0.00,WUHU216DAVISVP2,2013-02-03 13:20:00,
2013-02-03 08:25:00,25.4,21.8,29.93,SW,225,1.0,5.0,86,0.00,,,0.00,WUHU216DAVISVP2,2013-02-03 13:25:00,
2013-02-03 08:30:00,25.4,21.8,29.93,South,180,1.0,4.0,86,0.00,,,0.00,WUHU216DAVISVP2,2013-02-03 13:30:00,
2013-02-03 08:35:00,25.3,21.4,29.93,South,180,3.0,6.0,85,0.00,,,0.00,WUHU216DAVISVP2,2013-02-03 13:35:00,
2013-02-03 08:40:00,25.3,22.0,29.93,South,180,1.0,6.0,87,0.00,,,0.00,WUHU216DAVISVP2,2013-02-03 13:40:00,
2013-02-03 08:45:00,25.4,22.1,29.93,South,180,0.0,4.0,87,0.00,,,0.00,WUHU216DAVISVP2,2013-02-03 13:45:00,
2013-02-03 08:50:00,25.4,22.3,29.93,South,180,0.0,1.0,88,0.00,,,0.00,WUHU216DAVISVP2,2013-02-03 13:50:00,
2013-02-03 08:55:00,25.6,22.5,29.93,North,0,0.0,1.0,88,0.00,,,0.00,WUHU216DAVISVP2,2013-02-03 13:55:00,
2013-02-03 09:00:00,25.6,22.5,29.93,North,0,0.0,1.0,88,0.00,,,0.00,WUHU216DAVISVP2,2013-02-03 14:00:00,
2013-02-03 09:05:00,25.8,22.7,29.93,North,0,0.0,0.0,88,0.00,,,0.00,WUHU216DAVISVP2,2013-02-03 14:05:00,
2013-02-03 09:10:00,26.1,23.0,29.93,North,0,0.0,0.0,88,0.00,,,0.00,WUHU216DAVISVP2,2013-02-03 14:10:00,
2013-02-03 09:15:00,26.3,23.0,29.93,North,0,0.0,1.0,87,0.00,,,0.00,WUHU216DAVISVP2,2013-02-03 14:15:00,
2013-02-03 09:20:00,26.3,23.0,29.92,North,0,0.0,1.0,87,0.00,,,0.00,WUHU216DAVISVP2,2013-02-03 14:20:00,
2013-02-03 09:25:00,26.4,23.3,29.92,North,0,0.0,1.0,88,0.00,,,0.00,WUHU216DAVISVP2,2013-02-03 14:25:00,
2013-02-03 09:30:00,26.6,23.5,29.92,North,0,0.0,1.0,88,0.00,,,0.00,WUHU216DAVISVP2,2013-02-03 14:30:00,
2013-02-03 09:35:00,26.8,23.4,29.92,North,0,0.0,0.0,87,0.00,,,0.00,WUHU216DAVISVP2,2013-02-03 14:35:00,
2013-02-03 09:40:00,26.7,23.4,29.92,South,180,0.0,1.0,87,0.00,,,0.00,WUHU216DAVISVP2,2013-02-03 14:40:00,
2013-02-03 09:45:00,26.6,23.5,29.92,North,0,0.0,1.0,88,0.00,,,0.00,WUHU216DAVISVP2,2013-02-03 14:45:00,
2013-02-03 09:50:00,26.5,23.4,29.92,SE,135,0.0,2.0,88,0.00,,,0.00,WUHU216DAVISVP2,2013-02-03 14:50:00,
2013-02-03 09:55:00,26.5,23.4,29.92,North,0,0.0,2.0,88,0.00,,,0.00,WUHU216DAVISVP2,2013-02-03 14:55:00,
2013-02-03 10:00:00,26.5,23.7,29.92,North,0,0.0,1.0,89,0.00,,,0.00,WUHU216DAVISVP2,2013-02-03 15:00:00,
2013-02-03 10:05:00,26.5,23.7,29.92,North,0,0.0,0.0,89,0.00,,,0.00,WUHU216DAVISVP2,2013-02-03 15:05:00,
2013-02-03 10:10:00,26.6,23.8,29.92,North,0,0.0,0.0,89,0.00,,,0.00,WUHU216DAVISVP2,2013-02-03 15:10:00,
2013-02-03 10:15:00,26.7,23.9,29.92,SE,135,0.0,1.0,89,0.00,,,0.00,WUHU216DAVISVP2,2013-02-03 15:15:00,
2013-02-03 10:20:00,26.9,24.1,29.92,North,0,0.0,1.0,89,0.00,,,0.00,WUHU216DAVISVP2,2013-02-03 15:20:00,
2013-02-03 10:25:00,27.0,24.2,29.91,ESE,113,0.0,1.0,89,0.00,,,0.00,WUHU216DAVISVP2,2013-02-03 15:25:00,
2013-02-03 10:30:00,27.3,24.5,29.91,North,0,0.0,1.0,89,0.00,,,0.00,WUHU216DAVISVP2,2013-02-03 15:30:00,
2013-02-03 10:35:00,27.5,24.4,29.91,North,0,0.0,1.0,88,0.00,,,0.00,WUHU216DAVISVP2,2013-02-03 15:35:00,
2013-02-03 10:40:00,27.5,24.7,29.91,North,0,0.0,1.0,89,0.00,,,0.00,WUHU216DAVISVP2,2013-02-03 15:40:00,
2013-02-03 10:45:00,27.7,24.9,29.90,North,0,0.0,1.0,89,0.00,,,0.00,WUHU216DAVISVP2,2013-02-03 15:45:00,
2013-02-03 10:50:00,27.8,24.7,29.90,North,0,0.0,2.0,88,0.00,,,0.00,WUHU216DAVISVP2,2013-02-03 15:50:00,
2013-02-03 10:55:00,28.0,24.9,29.90,ESE,113,0.0,2.0,88,0.00,,,0.00,WUHU216DAVISVP2,2013-02-03 15:55:00,
2013-02-03 11:00:00,28.2,24.8,29.90,North,0,0.0,1.0,87,0.00,,,0.00,WUHU216DAVISVP2,2013-02-03 16:00:00,
2013-02-03 11:05:00,28.2,24.8,29.90,ENE,68,1.0,2.0,87,0.00,,,0.00,WUHU216DAVISVP2,2013-02-03 16:05:00,
2013-02-03 11:10:00,28.1,25.0,29.89,NW,315,2.0,3.0,88,0.00,,,0.00,WUHU216DAVISVP2,2013-02-03 16:10:00,
2013-02-03 11:15:00,27.8,24.7,29.89,NW,315,2.0,4.0,88,0.00,,,0.00,WUHU216DAVISVP2,2013-02-03 16:15:00,
2013-02-03 11:20:00,27.5,24.7,29.89,NNW,338,2.0,5.0,89,0.00,,,0.00,WUHU216DAVISVP2,2013-02-03 16:20:00,
2013-02-03 11:25:00,27.4,24.3,29.89,NW,315,1.0,5.0,88,0.00,,,0.00,WUHU216DAVISVP2,2013-02-03 16:25:00,
2013-02-03 11:30:00,27.4,24.6,29.89,NW,315,1.0,4.0,89,0.00,,,0.00,WUHU216DAVISVP2,2013-02-03 16:30:00,
2013-02-03 11:35:00,27.6,24.8,29.88,NW,315,0.0,3.0,89,0.00,,,0.00,WUHU216DAVISVP2,2013-02-03 16:35:00,
2013-02-03 11:40:00,27.8,25.0,29.88,West,270,1.0,3.0,89,0.00,,,0.00,WUHU216DAVISVP2,2013-02-03 16:40:00,
2013-02-03 11:45:00,28.1,25.3,29.88,WNW,293,1.0,3.0,89,0.00,,,0.00,WUHU216DAVISVP2,2013-02-03 16:45:00,
2013-02-03 11:50:00,28.4,25.6,29.88,WNW,293,1.0,3.0,89,0.00,,,0.00,WUHU216DAVISVP2,2013-02-03 16:50:00,
2013-02-03 11:55:00,28.4,25.0,29.88,WNW,293,1.0,2.0,87,0.00,,,0.00,WUHU216DAVISVP2,2013-02-03 16:55:00,
2013-02-03 12:00:00,28.4,25.3,29.88,North,0,0.0,2.0,88,0.00,,,0.00,WUHU216DAVISVP2,2013-02-03 17:00:00,
2013-02-03 12:05:00,28.7,25.6,29.87,North,0,0.0,1.0,88,0.00,,,0.00,WUHU216DAVISVP2,2013-02-03 17:05:00,
2013-02-03 12:10:00,28.9,24.7,29.87,SSW,203,4.0,7.0,84,0.00,,,0.00,WUHU216DAVISVP2,2013-02-03 17:10:00,
2013-02-03 12:15:00,28.8,24.0,29.87,SW,225,4.0,7.0,82,0.00,,,0.00,WUHU216DAVISVP2,2013-02-03 17:15:00,
2013-02-03 12:20:00,28.9,23.8,29.87,WSW,248,2.0,7.0,81,0.00,,,0.00,WUHU216DAVISVP2,2013-02-03 17:20:00,
2013-02-03 12:25:00,29.0,23.9,29.87,SW,225,2.0,6.0,81,0.00,,,0.00,WUHU216DAVISVP2,2013-02-03 17:25:00,
2013-02-03 12:30:00,29.1,24.0,29.87,SW,225,3.0,5.0,81,0.00,,,0.00,WUHU216DAVISVP2,2013-02-03 17:30:00,
2013-02-03 12:35:00,29.1,24.0,29.86,SSW,203,3.0,5.0,81,0.00,,,0.00,WUHU216DAVISVP2,2013-02-03 17:35:00,
2013-02-03 12:40:00,29.1,24.3,29.86,SW,225,0.0,5.0,82,0.00,,,0.00,WUHU216DAVISVP2,2013-02-03 17:40:00,
2013-02-03 12:45:00,29.2,23.8,29.86,West,270,3.0,6.0,80,0.00,,,0.00,WUHU216DAVISVP2,2013-02-03 17:45:00,
2013-02-03 12:50:00,29.3,24.2,29.86,SW,225,2.0,6.0,81,0.00,,,0.00,WUHU216DAVISVP2,2013-02-03 17:50:00,
2013-02-03 12:55:00,29.3,23.9,29.86,SW,225,1.0,5.0,80,0.00,,,0.00,WUHU216DAVISVP2,2013-02-03 17:55:00,
2013-02-03 13:00:00,29.3,24.2,29.86,West,270,3.0,5.0,81,0.00,,,0.00,WUHU216DAVISVP2,2013-02-03 18:00:00,
2013-02-03 13:05:00,29.2,24.4,29.85,West,270,1.0,5.0,82,0.00,,,0.00,WUHU216DAVISVP2,2013-02-03 18:05:00,
2013-02-03 13:10:00,29.2,24.7,29.85,WNW,293,0.0,4.0,83,0.00,,,0.00,WUHU216DAVISVP2,2013-02-03 18:10:00,
2013-02-03 13:15:00,29.2,25.0,29.85,SW,225,3.0,4.0,84,0.00,,,0.00,WUHU216DAVISVP2,2013-02-03 18:15:00,
2013-02-03 13:20:00,28.9,25.2,29.85,SW,225,1.0,5.0,86,0.00,,,0.00,WUHU216DAVISVP2,2013-02-03 18:20:00,
2013-02-03 13:25:00,28.6,25.2,29.85,SSW,203,3.0,5.0,87,0.00,,,0.00,WUHU216DAVISVP2,2013-02-03 18:25:00,
2013-02-03 13:30:00,28.4,25.3,29.85,SSW,203,2.0,5.0,88,0.00,,,0.00,WUHU216DAVISVP2,2013-02-03 18:30:00,
2013-02-03 13:35:00,28.4,25.3,29.84,SSW,203,1.0,4.0,88,0.00,,,0.00,WUHU216DAVISVP2,2013-02-03 18:35:00,
2013-02-03 13:40:00,28.6,25.5,29.84,SSW,203,2.0,5.0,88,0.00,,,0.00,WUHU216DAVISVP2,2013-02-03 18:40:00,
2013-02-03 13:45:00,28.9,25.5,29.84,SSW,203,6.0,8.0,87,0.00,,,0.00,WUHU216DAVISVP2,2013-02-03 18:45:00,
2013-02-03 13:50:00,29.1,25.4,29.84,SSW,203,2.0,8.0,86,0.00,,,0.00,WUHU216DAVISVP2,2013-02-03 18:50:00,
2013-02-03 13:55:00,29.4,24.9,29.84,West,270,4.0,9.0,83,0.00,,,0.00,WUHU216DAVISVP2,2013-02-03 18:55:00,
2013-02-03 14:00:00,29.4,24.3,29.84,WSW,248,4.0,10.0,81,0.00,,,0.00,WUHU216DAVISVP2,2013-02-03 19:00:00,
2013-02-03 14:05:00,29.4,24.6,29.84,West,270,2.0,10.0,82,0.00,,,0.00,WUHU216DAVISVP2,2013-02-03 19:05:00,
2013-02-03 14:10:00,29.5,24.4,29.84,West,270,3.0,10.0,81,0.00,,,0.00,WUHU216DAVISVP2,2013-02-03 19:10:00,
2013-02-03 14:15:00,29.4,24.0,29.84,SSW,203,5.0,7.0,80,0.00,,,0.00,WUHU216DAVISVP2,2013-02-03 19:15:00,
2013-02-03 14:20:00,29.0,23.9,29.84,SSW,203,5.0,8.0,81,0.00,,,0.00,WUHU216DAVISVP2,2013-02-03 19:20:00,
2013-02-03 14:25:00,28.9,24.4,29.84,SSW,203,1.0,8.0,83,0.00,,,0.00,WUHU216DAVISVP2,2013-02-03 19:25:00,
2013-02-03 14:30:00,28.9,24.4,29.84,SSW,203,2.0,7.0,83,0.00,,,0.00,WUHU216DAVISVP2,2013-02-03 19:30:00,
2013-02-03 14:35:00,28.9,24.4,29.84,SW,225,3.0,7.0,83,0.00,,,0.00,WUHU216DAVISVP2,2013-02-03 19:35:00,
2013-02-03 14:40:00,28.9,23.8,29.84,SSW,203,4.0,11.0,81,0.00,,,0.00,WUHU216DAVISVP2,2013-02-03 19:40:00,
2013-02-03 14:45:00,29.0,24.2,29.84,WSW,248,1.0,11.0,82,0.00,,,0.00,WUHU216DAVISVP2,2013-02-03 19:45:00,
2013-02-03 14:50:00,29.2,24.1,29.84,SW,225,4.0,8.0,81,0.00,,,0.00,WUHU216DAVISVP2,2013-02-03 19:50:00,
2013-02-03 14:55:00,29.4,24.0,29.85,WNW,293,2.0,14.0,80,0.00,,,0.00,WUHU216DAVISVP2,2013-02-03 19:55:00,
2013-02-03 15:00:00,29.4,23.4,29.85,West,270,5.0,14.0,78,0.00,,,0.00,WUHU216DAVISVP2,2013-02-03 20:00:00,
2013-02-03 15:05:00,29.6,23.6,29.84,WSW,248,2.0,9.0,78,0.00,,,0.00,WUHU216DAVISVP2,2013-02-03 20:05:00,
2013-02-03 15:10:00,29.5,23.5,29.85,SSW,203,6.0,9.0,78,0.00,,,0.00,WUHU216DAVISVP2,2013-02-03 20:10:00,
2013-02-03 15:15:00,29.3,23.6,29.84,West,270,2.0,8.0,79,0.00,,,0.00,WUHU216DAVISVP2,2013-02-03 20:15:00,
2013-02-03 15:20:00,29.2,23.8,29.84,SSW,203,3.0,8.0,80,0.00,,,0.00,WUHU216DAVISVP2,2013-02-03 20:20:00,
2013-02-03 15:25:00,29.0,23.9,29.85,SSW,203,5.0,9.0,81,0.00,,,0.00,WUHU216DAVISVP2,2013-02-03 20:25:00,
2013-02-03 15:30:00,28.9,24.4,29.85,WSW,248,3.0,9.0,83,0.00,,,0.00,WUHU216DAVISVP2,2013-02-03 20:30:00,
2013-02-03 15:35:00,28.9,24.4,29.85,SW,225,2.0,8.0,83,0.00,,,0.00,WUHU216DAVISVP2,2013-02-03 20:35:00,
2013-02-03 15:40:00,28.9,24.4,29.85,SW,225,3.0,8.0,83,0.00,,,0.00,WUHU216DAVISVP2,2013-02-03 20:40:00,
2013-02-03 15:45:00,28.9,24.4,29.85,WSW,248,3.0,10.0,83,0.00,,,0.00,WUHU216DAVISVP2,2013-02-03 20:45:00,
2013-02-03 15:50:00,28.9,24.4,29.85,WSW,248,2.0,10.0,83,0.00,,,0.00,WUHU216DAVISVP2,2013-02-03 20:50:00,
2013-02-03 15:55:00,28.9,24.1,29.85,West,270,7.0,12.0,82,0.00,,,0.00,WUHU216DAVISVP2,2013-02-03 20:55:00,
2013-02-03 16:00:00,28.8,23.7,29.85,SW,225,5.0,12.0,81,0.00,,,0.00,WUHU216DAVISVP2,2013-02-03 21:00:00,
2013-02-03 16:05:00,28.6,24.1,29.85,SW,225,1.0,12.0,83,0.00,,,0.00,WUHU216DAVISVP2,2013-02-03 21:05:00,
2013-02-03 16:10:00,28.4,24.5,29.86,North,0,4.0,12.0,85,0.00,,,0.00,WUHU216DAVISVP2,2013-02-03 21:10:00,
2013-02-03 16:15:00,28.0,24.6,29.86,NW,315,2.0,6.0,87,0.00,,,0.00,WUHU216DAVISVP2,2013-02-03 21:15:00,
2013-02-03 16:20:00,27.6,24.2,29.86,WNW,293,1.0,9.0,87,0.00,,,0.00,WUHU216DAVISVP2,2013-02-03 21:20:00,
2013-02-03 16:25:00,27.4,24.3,29.86,West,270,2.0,9.0,88,0.00,,,0.00,WUHU216DAVISVP2,2013-02-03 21:25:00,
2013-02-03 16:30:00,27.3,23.9,29.86,WNW,293,3.0,5.0,87,0.00,,,0.00,WUHU216DAVISVP2,2013-02-03 21:30:00,
2013-02-03 16:35:00,27.3,23.9,29.86,WSW,248,1.0,6.0,87,0.00,,,0.00,WUHU216DAVISVP2,2013-02-03 21:35:00,
2013-02-03 16:40:00,27.3,23.9,29.87,WNW,293,1.0,6.0,87,0.00,,,0.00,WUHU216DAVISVP2,2013-02-03 21:40:00,
2013-02-03 16:45:00,27.4,24.0,29.87,WNW,293,1.0,5.0,87,0.00,,,0.00,WUHU216DAVISVP2,2013-02-03 21:45:00,
2013-02-03 16:50:00,27.5,23.6,29.87,WNW,293,2.0,5.0,85,0.00,,,0.00,WUHU216DAVISVP2,2013-02-03 21:50:00,
2013-02-03 16:55:00,27.5,23.3,29.87,WNW,293,3.0,9.0,84,0.00,,,0.00,WUHU216DAVISVP2,2013-02-03 21:55:00,
2013-02-03 17:00:00,27.4,23.2,29.87,NW,315,6.0,10.0,84,0.00,,,0.00,WUHU216DAVISVP2,2013-02-03 22:00:00,
2013-02-03 17:05:00,26.6,23.0,29.88,NW,315,6.0,15.0,86,0.00,,,0.00,WUHU216DAVISVP2,2013-02-03 22:05:00,
2013-02-03 17:10:00,26.1,22.8,29.88,NW,315,5.0,15.0,87,0.00,,,0.00,WUHU216DAVISVP2,2013-02-03 22:10:00,
2013-02-03 17:15:00,25.8,23.0,29.88,NW,315,2.0,12.0,89,0.00,,,0.00,WUHU216DAVISVP2,2013-02-03 22:15:00,
2013-02-03 17:20:00,25.6,23.1,29.89,NW,315,3.0,8.0,90,0.00,,,0.00,WUHU216DAVISVP2,2013-02-03 22:20:00,
2013-02-03 17:25:00,25.4,22.9,29.89,WSW,248,1.0,5.0,90,0.00,,,0.00,WUHU216DAVISVP2,2013-02-03 22:25:00,
2013-02-03 17:30:00,25.2,22.7,29.90,West,270,3.0,9.0,90,0.00,,,0.00,WUHU216DAVISVP2,2013-02-03 22:30:00,
2013-02-03 17:35:00,25.0,22.2,29.90,West,270,3.0,9.0,89,0.00,,,0.00,WUHU216DAVISVP2,2013-02-03 22:35:00,
2013-02-03 17:40:00,24.9,22.1,29.90,NNW,338,0.0,6.0,89,0.00,,,0.00,WUHU216DAVISVP2,2013-02-03 22:40:00,
2013-02-03 17:45:00,24.7,21.9,29.90,NW,315,2.0,6.0,89,0.00,,,0.00,WUHU216DAVISVP2,2013-02-03 22:45:00,
2013-02-03 17:50:00,24.5,21.7,29.90,NW,315,1.0,6.0,89,0.00,,,0.00,WUHU216DAVISVP2,2013-02-03 22:50:00,
2013-02-03 17:55:00,24.3,21.5,29.91,North,0,2.0,5.0,89,0.00,,,0.00,WUHU216DAVISVP2,2013-02-03 22:55:00,
2013-02-03 18:00:00,24.3,21.5,29.91,WSW,248,4.0,9.0,89,0.00,,,0.00,WUHU216DAVISVP2,2013-02-03 23:00:00,
2013-02-03 18:05:00,24.1,21.3,29.91,NNW,338,4.0,9.0,89,0.00,,,0.00,WUHU216DAVISVP2,2013-02-03 23:05:00,
2013-02-03 18:10:00,24.0,21.2,29.92,WNW,293,2.0,9.0,89,0.00,,,0.00,WUHU216DAVISVP2,2013-02-03 23:10:00,
2013-02-03 18:15:00,24.0,21.2,29.92,NNW,338,1.0,8.0,89,0.00,,,0.00,WUHU216DAVISVP2,2013-02-03 23:15:00,
2013-02-03 18:20:00,23.9,21.4,29.92,NNE,23,3.0,5.0,90,0.00,,,0.00,WUHU216DAVISVP2,2013-02-03 23:20:00,
2013-02-03 18:25:00,23.8,21.3,29.93,North,0,1.0,5.0,90,0.00,,,0.00,WUHU216DAVISVP2,2013-02-03 23:25:00,
2013-02-03 18:30:00,23.7,21.5,29.93,North,0,0.0,5.0,91,0.00,,,0.00,WUHU216DAVISVP2,2013-02-03 23:30:00,
2013-02-03 18:35:00,23.7,21.5,29.93,WSW,248,2.0,6.0,91,0.00,,,0.00,WUHU216DAVISVP2,2013-02-03 23:35:00,
2013-02-03 18:40:00,23.6,21.1,29.93,NNW,338,1.0,6.0,90,0.00,,,0.00,WUHU216DAVISVP2,2013-02-03 23:40:00,
2013-02-03 18:45:00,23.5,21.3,29.94,West,270,2.0,5.0,91,0.00,,,0.00,WUHU216DAVISVP2,2013-02-03 23:45:00,
2013-02-03 18:50:00,23.4,20.9,29.94,SW,225,0.0,6.0,90,0.00,,,0.00,WUHU216DAVISVP2,2013-02-03 23:50:00,
2013-02-03 18:55:00,23.3,20.8,29.94,North,0,0.0,6.0,90,0.00,,,0.00,WUHU216DAVISVP2,2013-02-03 23:55:00,
2013-02-03 19:00:00,23.3,20.8,29.94,North,0,0.0,2.0,90,0.00,,,0.00,WUHU216DAVISVP2,2013-02-04 00:00:00,
2013-02-03 19:05:00,23.3,20.5,29.95,South,180,1.0,7.0,89,0.00,,,0.00,WUHU216DAVISVP2,2013-02-04 00:05:00,
2013-02-03 19:10:00,23.3,20.3,29.95,WSW,248,6.0,12.0,88,0.00,,,0.00,WUHU216DAVISVP2,2013-02-04 00:10:00,
2013-02-03 19:15:00,23.4,20.1,29.95,West,270,3.0,12.0,87,0.00,,,0.00,WUHU216DAVISVP2,2013-02-04 00:15:00,
2013-02-03 19:20:00,23.4,20.1,29.96,WNW,293,5.0,10.0,87,0.00,,,0.00,WUHU216DAVISVP2,2013-02-04 00:20:00,
2013-02-03 19:25:00,23.4,19.8,29.96,West,270,4.0,11.0,86,0.00,,,0.00,WUHU216DAVISVP2,2013-02-04 00:25:00,
2013-02-03 19:30:00,23.3,19.5,29.97,West,270,3.0,11.0,85,0.00,,,0.00,WUHU216DAVISVP2,2013-02-04 00:30:00,
2013-02-03 19:35:00,23.3,19.7,29.97,West,270,5.0,9.0,86,0.00,,,0.00,WUHU216DAVISVP2,2013-02-04 00:35:00,
2013-02-03 19:40:00,23.3,19.5,29.97,SW,225,2.0,8.0,85,0.00,,,0.00,WUHU216DAVISVP2,2013-02-04 00:40:00,
2013-02-03 19:45:00,23.3,19.2,29.98,WNW,293,6.0,14.0,84,0.00,,,0.00,WUHU216DAVISVP2,2013-02-04 00:45:00,
2013-02-03 19:50:00,23.3,18.9,29.98,West,270,4.0,15.0,83,0.00,,,0.00,WUHU216DAVISVP2,2013-02-04 00:50:00,
2013-02-03 19:55:00,23.2,18.8,29.98,WSW,248,3.0,15.0,83,0.00,,,0.00,WUHU216DAVISVP2,2013-02-04 00:55:00,
2013-02-03 20:00:00,23.2,19.1,29.98,West,270,3.0,11.0,84,0.00,,,0.00,WUHU216DAVISVP2,2013-02-04 01:00:00,
2013-02-03 20:05:00,23.1,18.7,29.98,WSW,248,4.0,9.0,83,0.00,,,0.00,WUHU216DAVISVP2,2013-02-04 01:05:00,
2013-02-03 20:10:00,23.1,19.0,29.98,SW,225,1.0,8.0,84,0.00,,,0.00,WUHU216DAVISVP2,2013-02-04 01:10:00,
2013-02-03 20:15:00,23.0,18.9,29.98,SSW,203,3.0,12.0,84,0.00,,,0.00,WUHU216DAVISVP2,2013-02-04 01:15:00,
2013-02-03 20:20:00,22.8,18.4,29.99,SW,225,3.0,12.0,83,0.00,,,0.00,WUHU216DAVISVP2,2013-02-04 01:20:00,
2013-02-03 20:25:00,22.7,18.6,29.99,West,270,1.0,11.0,84,0.00,,,0.00,WUHU216DAVISVP2,2013-02-04 01:25:00,
2013-02-03 20:30:00,22.6,18.5,29.99,WSW,248,6.0,11.0,84,0.00,,,0.00,WUHU216DAVISVP2,2013-02-04 01:30:00,
2013-02-03 20:35:00,22.4,18.3,29.99,SW,225,2.0,10.0,84,0.00,,,0.00,WUHU216DAVISVP2,2013-02-04 01:35:00,
2013-02-03 20:40:00,22.4,18.3,29.99,SSW,203,2.0,10.0,84,0.00,,,0.00,WUHU216DAVISVP2,2013-02-04 01:40:00,
2013-02-03 20:45:00,22.3,18.2,29.99,WSW,248,5.0,11.0,84,0.00,,,0.00,WUHU216DAVISVP2,2013-02-04 01:45:00,
2013-02-03 20:50:00,22.3,17.9,29.99,West,270,5.0,12.0,83,0.00,,,0.00,WUHU216DAVISVP2,2013-02-04 01:50:00,
2013-02-03 20:55:00,22.2,17.8,30.00,SW,225,5.0,12.0,83,0.00,,,0.00,WUHU216DAVISVP2,2013-02-04 01:55:00,
2013-02-03 21:00:00,22.2,17.3,30.00,WSW,248,7.0,18.0,81,0.00,,,0.00,WUHU216DAVISVP2,2013-02-04 02:00:00,
2013-02-03 21:05:00,22.2,17.3,30.00,SW,225,6.0,18.0,81,0.00,,,0.00,WUHU216DAVISVP2,2013-02-04 02:05:00,
2013-02-03 21:10:00,22.1,16.9,30.01,WSW,248,2.0,18.0,80,0.00,,,0.00,WUHU216DAVISVP2,2013-02-04 02:10:00,
2013-02-03 21:15:00,22.0,17.1,30.00,SSW,203,1.0,20.0,81,0.00,,,0.00,WUHU216DAVISVP2,2013-02-04 02:15:00,
2013-02-03 21:20:00,21.9,17.0,30.01,SW,225,6.0,20.0,81,0.00,,,0.00,WUHU216DAVISVP2,2013-02-04 02:20:00,
2013-02-03 21:25:00,21.8,16.9,30.01,SW,225,8.0,15.0,81,0.00,,,0.00,WUHU216DAVISVP2,2013-02-04 02:25:00,
2013-02-03 21:30:00,21.7,16.8,30.01,SW,225,3.0,15.0,81,0.00,,,0.00,WUHU216DAVISVP2,2013-02-04 02:30:00,
2013-02-03 21:35:00,21.6,16.7,30.01,WSW,248,5.0,12.0,81,0.00,,,0.00,WUHU216DAVISVP2,2013-02-04 02:35:00,
2013-02-03 21:40:00,21.5,16.9,30.02,SW,225,3.0,12.0,82,0.00,,,0.00,WUHU216DAVISVP2,2013-02-04 02:40:00,
2013-02-03 21:45:00,21.4,16.8,30.01,SW,225,4.0,10.0,82,0.00,,,0.00,WUHU216DAVISVP2,2013-02-04 02:45:00,
2013-02-03 21:50:00,21.3,16.7,30.02,West,270,3.0,13.0,82,0.00,,,0.00,WUHU216DAVISVP2,2013-02-04 02:50:00,
2013-02-03 21:55:00,21.2,16.6,30.02,SSW,203,4.0,13.0,82,0.00,,,0.00,WUHU216DAVISVP2,2013-02-04 02:55:00,
2013-02-03 22:00:00,21.1,16.2,30.02,SW,225,8.0,13.0,81,0.00,,,0.00,WUHU216DAVISVP2,2013-02-04 03:00:00,
2013-02-03 22:05:00,21.0,16.1,30.03,SW,225,1.0,13.0,81,0.00,,,0.00,WUHU216DAVISVP2,2013-02-04 03:05:00,
2013-02-03 22:10:00,20.9,15.4,30.03,West,270,8.0,22.0,79,0.00,,,0.00,WUHU216DAVISVP2,2013-02-04 03:10:00,
2013-02-03 22:15:00,20.9,15.4,30.03,WSW,248,4.0,22.0,79,0.00,,,0.00,WUHU216DAVISVP2,2013-02-04 03:15:00,
2013-02-03 22:20:00,20.7,14.9,30.03,NW,315,7.0,14.0,78,0.00,,,0.00,WUHU216DAVISVP2,2013-02-04 03:20:00,
2013-02-03 22:25:00,20.5,14.7,30.03,West,270,1.0,15.0,78,0.00,,,0.00,WUHU216DAVISVP2,2013-02-04 03:25:00,
2013-02-03 22:30:00,20.4,14.3,30.04,WSW,248,3.0,15.0,77,0.00,,,0.00,WUHU216DAVISVP2,2013-02-04 03:30:00,
2013-02-03 22:35:00,20.4,14.3,30.04,West,270,2.0,13.0,77,0.00,,,0.00,WUHU216DAVISVP2,2013-02-04 03:35:00,
2013-02-03 22:40:00,20.4,14.6,30.04,SW,225,3.0,13.0,78,0.00,,,0.00,WUHU216DAVISVP2,2013-02-04 03:40:00,
2013-02-03 22:45:00,20.3,14.5,30.04,West,270,5.0,14.0,78,0.00,,,0.00,WUHU216DAVISVP2,2013-02-04 03:45:00,
2013-02-03 22:50:00,20.2,14.4,30.05,NW,315,4.0,14.0,78,0.00,,,0.00,WUHU216DAVISVP2,2013-02-04 03:50:00,
2013-02-03 22:55:00,20.2,14.4,30.05,West,270,5.0,14.0,78,0.00,,,0.00,WUHU216DAVISVP2,2013-02-04 03:55:00,
2013-02-03 23:00:00,20.1,14.3,30.05,SSW,203,1.0,12.0,78,0.00,,,0.00,WUHU216DAVISVP2,2013-02-04 04:00:00,
2013-02-03 23:05:00,20.0,13.9,30.05,WSW,248,3.0,12.0,77,0.00,,,0.00,WUHU216DAVISVP2,2013-02-04 04:05:00,
2013-02-03 23:10:00,20.0,13.9,30.06,NW,315,4.0,12.0,77,0.00,,,0.00,WUHU216DAVISVP2,2013-02-04 04:10:00,
2013-02-03 23:15:00,19.9,13.9,30.06,West,270,3.0,9.0,77,0.00,,,0.00,WUHU216DAVISVP2,2013-02-04 04:15:00,
2013-02-03 23:20:00,19.9,13.9,30.06,West,270,4.0,9.0,77,0.00,,,0.00,WUHU216DAVISVP2,2013-02-04 04:20:00,
2013-02-03 23:25:00,19.9,14.1,30.06,SSW,203,6.0,11.0,78,0.00,,,0.00,WUHU216DAVISVP2,2013-02-04 04:25:00,
2013-02-03 23:30:00,19.9,14.1,30.06,SSW,203,3.0,11.0,78,0.00,,,0.00,WUHU216DAVISVP2,2013-02-04 04:30:00,
2013-02-03 23:35:00,19.8,14.0,30.06,SW,225,7.0,11.0,78,0.00,,,0.00,WUHU216DAVISVP2,2013-02-04 04:35:00,
2013-02-03 23:40:00,19.8,14.3,30.06,SW,225,1.0,10.0,79,0.00,,,0.00,WUHU216DAVISVP2,2013-02-04 04:40:00,
2013-02-03 23:45:00,19.7,14.2,30.06,West,270,4.0,10.0,79,0.00,,,0.00,WUHU216DAVISVP2,2013-02-04 04:45:00,
2013-02-03 23:50:00,19.5,14.3,30.06,WSW,248,2.0,10.0,80,0.00,,,0.00,WUHU216DAVISVP2,2013-02-04 04:50:00,
2013-02-03 23:55:00,19.5,14.3,30.06,SSW,203,4.0,8.0,80,0.00,,,0.00,WUHU216DAVISVP2,2013-02-04 04:55:00,